User: anonymous   Login
Location: Grevenbroich
(51.0902°N, 6.5859°E)
Time: 12:03:55
(UTC+01:00)
Language:

ISS - Orbit

View from above orbital plane
View from above orbital plane
View from above satellite
View from above satellite

Ground track
Ground track

The orbit data is extracted from the following two-line orbital elements,

1 25544U 98067A   24056.34689676  .00028794  00000-0  52265-3 0  9999
2 25544  51.6416 154.5733 0005735 289.2367 179.2743 15.49326744441052
Epoch (UTC): 25 February 2024 08:19:31
Eccentricity: 0.0005735
inclination: 51.6416°
perigee height: 415 km
apogee height: 422 km
right ascension of ascending node: 154.5733°
argument of perigee: 289.2367°
revolutions per day: 15.49326744
mean anomaly at epoch: 179.2743°
orbit number at epoch: 44105

The dashed part of the orbit path shows where the satellite is in the earth's shadow,  

DLR